Time,TemperatureF,DewpointF,PressureIn,WindDirection,WindDirectionDegrees,WindSpeedMPH,WindSpeedGustMPH,Humidity,HourlyPrecipIn,Conditions,Clouds,dailyrainin,SoftwareType,DateUTC
2013-06-16 00:00:00,65.8,61.2,29.82,SE,145,0.0,1.0,85,0.00,,---,0.00,VWS V14.01,2013-06-16 04:00:00,
2013-06-16 00:01:00,61.3,57.4,29.83,NW,326,2.0,2.0,87,0.01,,---,0.00,VWS V14.01,2013-06-16 04:01:00,
2013-06-16 00:06:00,61.0,57.1,29.83,North,10,3.0,5.0,87,0.04,,---,0.03,VWS V14.01,2013-06-16 04:06:00,
2013-06-16 00:11:00,60.7,56.8,29.83,North,8,1.0,5.0,87,0.04,,---,0.03,VWS V14.01,2013-06-16 04:11:00,
2013-06-16 00:16:00,60.4,56.5,29.83,North,10,2.0,5.0,87,0.05,,---,0.04,VWS V14.01,2013-06-16 04:16:00,
2013-06-16 00:21:00,60.4,56.5,29.83,North,10,2.0,5.0,87,0.05,,---,0.04,VWS V14.01,2013-06-16 04:21:00,
2013-06-16 00:26:00,60.2,56.3,29.83,North,10,2.0,5.0,87,0.05,,---,0.04,VWS V14.01,2013-06-16 04:26:00,
2013-06-16 00:30:00,65.6,58.9,29.84,North,349,6.0,8.0,79,0.00,,---,0.00,VWS V14.01,2013-06-16 04:30:00,
2013-06-16 00:31:00,60.1,56.2,29.83,North,10,0.0,1.0,87,0.05,,---,0.04,VWS V14.01,2013-06-16 04:31:00,
2013-06-16 00:36:00,60.1,56.2,29.83,North,10,0.0,1.0,87,0.06,,---,0.05,VWS V14.01,2013-06-16 04:36:00,
2013-06-16 00:41:00,59.9,58.5,29.83,North,6,3.0,3.0,95,0.07,,---,0.06,VWS V14.01,2013-06-16 04:41:00,
2013-06-16 00:46:00,59.9,58.5,29.83,North,357,5.0,5.0,95,0.07,,---,0.06,VWS V14.01,2013-06-16 04:46:00,
2013-06-16 00:51:00,59.8,58.4,29.83,NW,318,2.0,6.0,95,0.08,,---,0.07,VWS V14.01,2013-06-16 04:51:00,
2013-06-16 00:56:00,59.8,58.4,29.83,NW,318,2.0,6.0,95,0.08,,---,0.07,VWS V14.01,2013-06-16 04:56:00,
2013-06-16 01:00:00,61.3,57.4,29.83,NW,326,2.0,8.0,87,0.01,,---,0.01,VWS V14.01,2013-06-16 05:00:00,
2013-06-16 01:01:00,59.8,58.4,29.83,NW,318,0.0,2.0,95,0.07,,---,0.07,VWS V14.01,2013-06-16 05:01:00,
2013-06-16 01:06:00,59.8,58.4,29.83,NW,318,0.0,2.0,95,0.08,,---,0.08,VWS V14.01,2013-06-16 05:06:00,
2013-06-16 01:11:00,59.8,58.4,29.83,NW,318,0.0,2.0,95,0.08,,---,0.08,VWS V14.01,2013-06-16 05:11:00,
2013-06-16 01:16:00,59.9,58.5,29.84,SSW,213,2.0,2.0,95,0.08,,---,0.08,VWS V14.01,2013-06-16 05:16:00,
2013-06-16 01:21:00,59.9,58.5,29.84,SW,217,0.0,2.0,95,0.08,,---,0.08,VWS V14.01,2013-06-16 05:21:00,
2013-06-16 01:27:00,59.9,58.5,29.84,WNW,288,0.0,2.0,95,0.08,,---,0.08,VWS V14.01,2013-06-16 05:27:00,
2013-06-16 01:30:00,60.1,56.2,29.83,North,10,1.0,5.0,87,0.05,,---,0.04,VWS V14.01,2013-06-16 05:30:00,
2013-06-16 01:32:00,60.1,58.7,29.83,South,178,0.0,2.0,95,0.06,,---,0.10,VWS V14.01,2013-06-16 05:32:00,
2013-06-16 01:37:00,60.2,58.8,29.83,South,174,0.0,2.0,95,0.07,,---,0.11,VWS V14.01,2013-06-16 05:37:00,
2013-06-16 01:42:00,60.2,58.8,29.83,South,188,1.0,2.0,95,0.08,,---,0.12,VWS V14.01,2013-06-16 05:42:00,
2013-06-16 01:47:00,60.2,58.8,29.82,ESE,119,0.0,2.0,95,0.08,,---,0.12,VWS V14.01,2013-06-16 05:47:00,
2013-06-16 01:52:00,60.2,58.8,29.82,ESE,112,2.0,3.0,95,0.09,,---,0.13,VWS V14.01,2013-06-16 05:52:00,
2013-06-16 01:57:00,60.2,58.8,29.82,ESE,112,0.0,3.0,95,0.10,,---,0.14,VWS V14.01,2013-06-16 05:57:00,
2013-06-16 02:00:00,59.8,58.4,29.83,NW,318,2.0,6.0,95,0.08,,---,0.07,VWS V14.01,2013-06-16 06:00:00,
2013-06-16 02:02:00,60.4,59.0,29.82,ESE,120,1.0,3.0,95,0.07,,---,0.14,VWS V14.01,2013-06-16 06:02:00,
2013-06-16 02:07:00,60.4,59.0,29.82,East,83,0.0,3.0,95,0.08,,---,0.15,VWS V14.01,2013-06-16 06:07:00,
2013-06-16 02:12:00,60.4,59.0,29.82,East,90,0.0,3.0,95,0.09,,---,0.16,VWS V14.01,2013-06-16 06:12:00,
2013-06-16 02:17:00,60.4,59.0,29.80,East,89,0.0,3.0,95,0.10,,---,0.17,VWS V14.01,2013-06-16 06:17:00,
2013-06-16 02:22:00,60.4,59.0,29.80,East,92,1.0,3.0,95,0.11,,---,0.18,VWS V14.01,2013-06-16 06:22:00,
2013-06-16 02:27:00,60.2,58.8,29.80,East,92,1.0,3.0,95,0.11,,---,0.18,VWS V14.01,2013-06-16 06:27:00,
2013-06-16 02:30:00,60.1,58.7,29.83,South,178,2.0,2.0,95,0.10,,---,0.10,VWS V14.01,2013-06-16 06:30:00,
2013-06-16 02:32:00,60.2,58.8,29.77,East,96,0.0,2.0,95,0.09,,---,0.19,VWS V14.01,2013-06-16 06:32:00,
2013-06-16 02:37:00,60.2,58.8,29.77,SE,126,2.0,3.0,95,0.10,,---,0.20,VWS V14.01,2013-06-16 06:37:00,
2013-06-16 02:42:00,60.4,59.0,29.77,SSE,164,3.0,4.0,95,0.11,,---,0.21,VWS V14.01,2013-06-16 06:42:00,
2013-06-16 02:47:00,60.5,59.1,29.73,West,267,0.0,7.0,95,0.12,,---,0.22,VWS V14.01,2013-06-16 06:47:00,
2013-06-16 02:52:00,60.5,59.1,29.73,WSW,241,0.0,7.0,95,0.12,,---,0.22,VWS V14.01,2013-06-16 06:52:00,
2013-06-16 02:57:00,60.7,59.3,29.73,SSE,161,1.0,7.0,95,0.13,,---,0.23,VWS V14.01,2013-06-16 06:57:00,
2013-06-16 03:00:00,60.2,58.8,29.82,ESE,116,2.0,3.0,95,0.10,,---,0.14,VWS V14.01,2013-06-16 07:00:00,
2013-06-16 03:02:00,60.7,59.3,29.76,East,83,3.0,3.0,95,0.10,,---,0.24,VWS V14.01,2013-06-16 07:02:00,
2013-06-16 03:07:00,60.7,59.3,29.76,SE,143,1.0,5.0,95,0.11,,---,0.25,VWS V14.01,2013-06-16 07:07:00,
2013-06-16 03:12:00,60.7,59.3,29.76,ENE,78,3.0,5.0,95,0.11,,---,0.25,VWS V14.01,2013-06-16 07:12:00,
2013-06-16 03:17:00,60.7,59.3,29.73,ESE,104,2.0,5.0,95,0.12,,---,0.26,VWS V14.01,2013-06-16 07:17:00,
2013-06-16 03:22:00,60.7,59.3,29.73,ESE,121,0.0,7.0,95,0.13,,---,0.27,VWS V14.01,2013-06-16 07:22:00,
2013-06-16 03:27:00,60.7,59.3,29.73,East,89,0.0,7.0,95,0.13,,---,0.27,VWS V14.01,2013-06-16 07:27:00,
2013-06-16 03:30:00,60.2,58.8,29.77,East,92,0.0,3.0,95,0.12,,---,0.19,VWS V14.01,2013-06-16 07:30:00,
2013-06-16 03:32:00,60.7,59.3,29.74,East,89,0.0,1.0,95,0.09,,---,0.28,VWS V14.01,2013-06-16 07:32:00,
2013-06-16 03:37:00,60.7,59.3,29.74,East,89,0.0,2.0,95,0.10,,---,0.29,VWS V14.01,2013-06-16 07:37:00,
2013-06-16 03:42:00,60.7,59.3,29.74,East,90,0.0,2.0,95,0.10,,---,0.29,VWS V14.01,2013-06-16 07:42:00,
2013-06-16 03:47:00,60.7,59.3,29.75,East,90,0.0,2.0,95,0.10,,---,0.29,VWS V14.01,2013-06-16 07:47:00,
2013-06-16 03:52:00,60.7,59.3,29.75,East,90,0.0,2.0,95,0.11,,---,0.30,VWS V14.01,2013-06-16 07:52:00,
2013-06-16 03:57:00,60.7,59.3,29.75,East,89,0.0,2.0,95,0.12,,---,0.31,VWS V14.01,2013-06-16 07:57:00,
2013-06-16 04:00:00,60.7,59.3,29.76,West,265,0.0,7.0,95,0.14,,---,0.24,VWS V14.01,2013-06-16 08:00:00,
2013-06-16 04:02:00,61.0,59.6,29.76,East,89,0.0,0.0,95,0.08,,---,0.32,VWS V14.01,2013-06-16 08:02:00,
2013-06-16 04:07:00,61.0,59.6,29.76,East,89,0.0,0.0,95,0.08,,---,0.32,VWS V14.01,2013-06-16 08:07:00,
2013-06-16 04:12:00,60.9,59.5,29.76,East,89,0.0,0.0,95,0.09,,---,0.33,VWS V14.01,2013-06-16 08:12:00,
2013-06-16 04:17:00,60.9,59.5,29.76,East,89,0.0,0.0,95,0.09,,---,0.33,VWS V14.01,2013-06-16 08:17:00,
2013-06-16 04:22:00,60.7,59.3,29.76,East,89,0.0,0.0,95,0.10,,---,0.34,VWS V14.01,2013-06-16 08:22:00,
2013-06-16 04:27:00,60.9,59.5,29.76,East,89,0.0,0.0,95,0.10,,---,0.34,VWS V14.01,2013-06-16 08:27:00,
2013-06-16 04:30:00,60.7,59.3,29.74,East,89,1.0,7.0,95,0.14,,---,0.28,VWS V14.01,2013-06-16 08:30:00,
2013-06-16 04:32:00,60.9,59.5,29.76,East,89,0.0,1.0,95,0.06,,---,0.34,VWS V14.01,2013-06-16 08:32:00,
2013-06-16 04:37:00,61.0,59.6,29.76,East,89,0.0,1.0,95,0.07,,---,0.35,VWS V14.01,2013-06-16 08:37:00,
2013-06-16 04:42:00,61.2,59.8,29.76,East,89,1.0,1.0,95,0.07,,---,0.35,VWS V14.01,2013-06-16 08:42:00,
2013-06-16 04:47:00,61.2,59.8,29.77,East,89,0.0,1.0,95,0.08,,---,0.36,VWS V14.01,2013-06-16 08:47:00,
2013-06-16 04:52:00,61.2,59.8,29.77,East,89,0.0,2.0,95,0.08,,---,0.36,VWS V14.01,2013-06-16 08:52:00,
2013-06-16 04:57:00,61.3,59.9,29.77,NNW,330,0.0,3.0,95,0.09,,---,0.37,VWS V14.01,2013-06-16 08:57:00,
2013-06-16 05:00:00,60.7,59.3,29.76,East,89,0.0,2.0,95,0.12,,---,0.31,VWS V14.01,2013-06-16 09:00:00,
2013-06-16 05:02:00,61.3,59.9,29.77,NNW,330,2.0,3.0,95,0.06,,---,0.37,VWS V14.01,2013-06-16 09:02:00,
2013-06-16 05:07:00,61.5,60.1,29.77,NW,325,7.0,10.0,95,0.07,,---,0.38,VWS V14.01,2013-06-16 09:07:00,
2013-06-16 05:13:00,60.9,59.5,29.77,NNW,335,9.0,11.0,95,0.07,,---,0.38,VWS V14.01,2013-06-16 09:13:00,
2013-06-16 05:18:00,60.2,58.8,29.78,NNW,342,7.0,12.0,95,0.07,,---,0.38,VWS V14.01,2013-06-16 09:18:00,
2013-06-16 05:23:00,59.5,58.1,29.78,NW,308,8.0,14.0,95,0.08,,---,0.39,VWS V14.01,2013-06-16 09:23:00,
2013-06-16 05:28:00,58.7,57.3,29.78,NW,309,6.0,14.0,95,0.08,,---,0.39,VWS V14.01,2013-06-16 09:28:00,
2013-06-16 05:30:00,60.9,59.5,29.76,East,89,0.0,0.0,95,0.10,,---,0.34,VWS V14.01,2013-06-16 09:30:00,
2013-06-16 05:33:00,58.3,56.9,29.78,NW,318,2.0,7.0,95,0.05,,---,0.39,VWS V14.01,2013-06-16 09:33:00,
2013-06-16 05:38:00,58.0,56.6,29.78,NNW,337,2.0,8.0,95,0.05,,---,0.39,VWS V14.01,2013-06-16 09:38:00,
2013-06-16 05:43:00,57.8,56.4,29.78,NW,326,2.0,8.0,95,0.06,,---,0.40,VWS V14.01,2013-06-16 09:43:00,
2013-06-16 05:48:00,57.6,56.2,29.77,NNW,329,0.0,8.0,95,0.07,,---,0.41,VWS V14.01,2013-06-16 09:48:00,
2013-06-16 05:53:00,57.8,56.4,29.77,NNW,329,0.0,8.0,95,0.07,,---,0.41,VWS V14.01,2013-06-16 09:53:00,
2013-06-16 05:58:00,57.8,56.4,29.77,NNW,329,0.0,8.0,95,0.08,,---,0.42,VWS V14.01,2013-06-16 09:58:00,
2013-06-16 06:00:00,61.3,59.9,29.77,NNW,330,2.0,3.0,95,0.09,,---,0.37,VWS V14.01,2013-06-16 10:00:00,
2013-06-16 06:03:00,57.8,56.4,29.77,NNW,329,1.0,1.0,95,0.05,,---,0.42,VWS V14.01,2013-06-16 10:03:00,
2013-06-16 06:08:00,58.0,56.6,29.77,NNW,329,0.0,1.0,95,0.05,,---,0.42,VWS V14.01,2013-06-16 10:08:00,
2013-06-16 06:13:00,58.0,56.6,29.77,NNW,329,0.0,2.0,95,0.06,,---,0.43,VWS V14.01,2013-06-16 10:13:00,
2013-06-16 06:18:00,58.1,56.7,29.77,NNW,329,0.0,2.0,95,0.06,,---,0.43,VWS V14.01,2013-06-16 10:18:00,
2013-06-16 06:23:00,58.1,56.7,29.77,NNW,329,0.0,2.0,95,0.07,,---,0.44,VWS V14.01,2013-06-16 10:23:00,
2013-06-16 06:28:00,58.3,56.9,29.77,NNW,329,0.0,2.0,95,0.07,,---,0.44,VWS V14.01,2013-06-16 10:28:00,
2013-06-16 06:30:00,58.4,57.0,29.78,North,0,5.0,14.0,95,0.08,,---,0.39,VWS V14.01,2013-06-16 10:30:00,
2013-06-16 06:33:00,58.3,56.9,29.77,NNW,329,0.0,1.0,95,0.05,,---,0.44,VWS V14.01,2013-06-16 10:33:00,
2013-06-16 06:38:00,58.4,57.0,29.77,NW,311,0.0,1.0,95,0.06,,---,0.45,VWS V14.01,2013-06-16 10:38:00,
2013-06-16 06:43:00,58.6,57.2,29.77,NW,311,0.0,1.0,95,0.06,,---,0.45,VWS V14.01,2013-06-16 10:43:00,
2013-06-16 06:48:00,58.7,57.3,29.78,NW,311,0.0,1.0,95,0.06,,---,0.45,VWS V14.01,2013-06-16 10:48:00,
2013-06-16 06:53:00,58.7,57.3,29.78,NW,311,0.0,1.0,95,0.07,,---,0.46,VWS V14.01,2013-06-16 10:53:00,
2013-06-16 06:58:00,58.9,57.5,29.78,NE,51,0.0,1.0,95,0.07,,---,0.46,VWS V14.01,2013-06-16 10:58:00,
2013-06-16 07:00:00,57.8,56.4,29.77,NNW,329,0.0,8.0,95,0.08,,---,0.42,VWS V14.01,2013-06-16 11:00:00,
2013-06-16 07:03:00,58.9,57.5,29.78,NE,51,0.0,0.0,95,0.04,,---,0.46,VWS V14.01,2013-06-16 11:03:00,
2013-06-16 07:08:00,59.0,57.6,29.78,NNW,330,0.0,2.0,95,0.05,,---,0.47,VWS V14.01,2013-06-16 11:08:00,
2013-06-16 07:13:00,59.2,57.8,29.78,NNW,330,0.0,2.0,95,0.05,,---,0.47,VWS V14.01,2013-06-16 11:13:00,
2013-06-16 07:18:00,59.3,57.9,29.78,SW,227,1.0,2.0,95,0.05,,---,0.47,VWS V14.01,2013-06-16 11:18:00,
2013-06-16 07:23:00,59.3,57.9,29.78,SW,230,0.0,2.0,95,0.06,,---,0.48,VWS V14.01,2013-06-16 11:23:00,
2013-06-16 07:28:00,59.3,57.9,29.78,SW,232,0.0,2.0,95,0.06,,---,0.48,VWS V14.01,2013-06-16 11:28:00,
2013-06-16 07:30:00,58.3,56.9,29.77,NNW,329,0.0,2.0,95,0.07,,---,0.44,VWS V14.01,2013-06-16 11:30:00,
2013-06-16 07:33:00,59.2,57.8,29.79,WSW,241,1.0,2.0,95,0.04,,---,0.48,VWS V14.01,2013-06-16 11:33:00,
2013-06-16 07:38:00,59.2,57.8,29.79,SW,217,0.0,2.0,95,0.05,,---,0.49,VWS V14.01,2013-06-16 11:38:00,
2013-06-16 07:43:00,59.2,57.8,29.79,West,271,2.0,2.0,95,0.05,,---,0.49,VWS V14.01,2013-06-16 11:43:00,
2013-06-16 07:48:00,59.2,57.8,29.79,West,275,1.0,2.0,95,0.05,,---,0.49,VWS V14.01,2013-06-16 11:48:00,
2013-06-16 07:53:00,59.2,57.8,29.79,SSW,199,0.0,2.0,95,0.05,,---,0.49,VWS V14.01,2013-06-16 11:53:00,
2013-06-16 07:59:00,59.2,57.8,29.79,ESE,106,0.0,2.0,95,0.07,,---,0.51,VWS V14.01,2013-06-16 11:59:00,
2013-06-16 08:00:00,58.9,57.5,29.78,NE,51,0.0,1.0,95,0.07,,---,0.46,VWS V14.01,2013-06-16 12:00:00,
2013-06-16 08:04:00,59.0,57.6,29.78,NNE,24,0.0,1.0,95,0.05,,---,0.51,VWS V14.01,2013-06-16 12:04:00,
2013-06-16 08:09:00,59.0,57.6,29.78,ESE,116,0.0,1.0,95,0.05,,---,0.51,VWS V14.01,2013-06-16 12:09:00,
2013-06-16 08:14:00,59.2,57.8,29.78,SSW,195,0.0,1.0,95,0.06,,---,0.52,VWS V14.01,2013-06-16 12:14:00,
2013-06-16 08:19:00,59.5,58.1,29.79,WNW,296,0.0,1.0,95,0.06,,---,0.52,VWS V14.01,2013-06-16 12:19:00,
2013-06-16 08:24:00,59.5,58.1,29.79,WNW,296,0.0,1.0,95,0.06,,---,0.52,VWS V14.01,2013-06-16 12:24:00,
2013-06-16 08:29:00,59.3,57.9,29.79,West,261,2.0,2.0,95,0.07,,---,0.53,VWS V14.01,2013-06-16 12:29:00,
2013-06-16 08:30:00,59.3,57.9,29.79,SW,233,2.0,2.0,95,0.06,,---,0.48,VWS V14.01,2013-06-16 12:30:00,
2013-06-16 08:34:00,59.2,57.8,29.79,SSW,203,0.0,1.0,95,0.05,,---,0.53,VWS V14.01,2013-06-16 12:34:00,
2013-06-16 08:39:00,59.2,57.8,29.79,ESE,113,2.0,4.0,95,0.05,,---,0.53,VWS V14.01,2013-06-16 12:39:00,
2013-06-16 08:44:00,59.3,57.9,29.79,SE,141,0.0,4.0,95,0.06,,---,0.54,VWS V14.01,2013-06-16 12:44:00,
2013-06-16 08:49:00,59.5,58.1,29.79,SSE,147,0.0,4.0,95,0.06,,---,0.54,VWS V14.01,2013-06-16 12:49:00,
2013-06-16 08:54:00,59.6,58.2,29.79,South,176,0.0,4.0,95,0.06,,---,0.54,VWS V14.01,2013-06-16 12:54:00,
2013-06-16 08:59:00,59.6,58.2,29.79,SSW,200,0.0,4.0,95,0.06,,---,0.54,VWS V14.01,2013-06-16 12:59:00,
2013-06-16 09:00:00,59.2,57.8,29.78,East,79,0.0,2.0,95,0.07,,---,0.51,VWS V14.01,2013-06-16 13:00:00,
2013-06-16 09:04:00,59.6,58.2,29.79,SSW,208,0.0,2.0,95,0.04,,---,0.55,VWS V14.01,2013-06-16 13:04:00,
2013-06-16 09:09:00,59.8,58.4,29.79,SSE,151,2.0,2.0,95,0.04,,---,0.55,VWS V14.01,2013-06-16 13:09:00,
2013-06-16 09:14:00,59.9,58.5,29.79,SSW,202,2.0,3.0,95,0.04,,---,0.55,VWS V14.01,2013-06-16 13:14:00,
2013-06-16 09:19:00,59.9,58.5,29.80,SW,223,0.0,3.0,95,0.05,,---,0.56,VWS V14.01,2013-06-16 13:19:00,
2013-06-16 09:24:00,59.9,58.5,29.80,SSE,148,1.0,5.0,95,0.05,,---,0.56,VWS V14.01,2013-06-16 13:24:00,
2013-06-16 09:29:00,59.9,58.5,29.80,SW,220,1.0,5.0,95,0.06,,---,0.57,VWS V14.01,2013-06-16 13:29:00,
2013-06-16 09:30:00,59.3,57.9,29.79,WSW,257,0.0,2.0,95,0.07,,---,0.53,VWS V14.01,2013-06-16 13:30:00,
2013-06-16 09:34:00,59.8,58.4,29.81,NW,309,2.0,5.0,95,0.04,,---,0.57,VWS V14.01,2013-06-16 13:34:00,
2013-06-16 09:39:00,59.6,58.2,29.81,NW,304,2.0,5.0,95,0.04,,---,0.57,VWS V14.01,2013-06-16 13:39:00,
2013-06-16 09:44:00,59.6,58.2,29.81,WNW,294,0.0,7.0,95,0.04,,---,0.57,VWS V14.01,2013-06-16 13:44:00,
2013-06-16 09:49:00,59.6,58.2,29.81,West,265,1.0,7.0,95,0.05,,---,0.58,VWS V14.01,2013-06-16 13:49:00,
2013-06-16 09:54:00,59.6,58.2,29.81,SE,126,0.0,7.0,95,0.05,,---,0.58,VWS V14.01,2013-06-16 13:54:00,
2013-06-16 09:59:00,59.6,58.2,29.81,SSW,206,1.0,7.0,95,0.05,,---,0.58,VWS V14.01,2013-06-16 13:59:00,
2013-06-16 10:00:00,59.6,58.2,29.79,SSW,200,0.0,4.0,95,0.07,,---,0.55,VWS V14.01,2013-06-16 14:00:00,
2013-06-16 10:04:00,59.8,58.4,29.81,SSW,206,3.0,3.0,95,0.04,,---,0.59,VWS V14.01,2013-06-16 14:04:00,
2013-06-16 10:09:00,59.6,58.2,29.81,SSW,202,5.0,5.0,95,0.04,,---,0.59,VWS V14.01,2013-06-16 14:09:00,
2013-06-16 10:14:00,59.8,58.4,29.82,West,261,0.0,5.0,95,0.04,,---,0.59,VWS V14.01,2013-06-16 14:14:00,
2013-06-16 10:19:00,59.8,58.4,29.82,SW,232,2.0,5.0,95,0.04,,---,0.59,VWS V14.01,2013-06-16 14:19:00,
2013-06-16 10:24:00,59.9,58.5,29.82,WSW,251,0.0,5.0,95,0.05,,---,0.60,VWS V14.01,2013-06-16 14:24:00,
2013-06-16 10:29:00,60.1,58.7,29.81,East,80,0.0,5.0,95,0.05,,---,0.60,VWS V14.01,2013-06-16 14:29:00,
2013-06-16 10:30:00,59.9,58.5,29.81,WSW,244,2.0,5.0,95,0.06,,---,0.57,VWS V14.01,2013-06-16 14:30:00,
2013-06-16 10:35:00,60.2,58.8,29.81,East,82,1.0,3.0,95,0.03,,---,0.60,VWS V14.01,2013-06-16 14:35:00,
2013-06-16 10:40:00,60.2,58.8,29.81,East,82,2.0,3.0,95,0.03,,---,0.60,VWS V14.01,2013-06-16 14:40:00,
2013-06-16 10:45:00,60.2,58.8,29.81,South,186,0.0,3.0,95,0.03,,---,0.60,VWS V14.01,2013-06-16 14:45:00,
2013-06-16 10:50:00,60.2,58.8,29.81,South,189,0.0,3.0,95,0.04,,---,0.61,VWS V14.01,2013-06-16 14:50:00,
2013-06-16 10:55:00,60.2,58.8,29.81,West,281,1.0,3.0,95,0.04,,---,0.61,VWS V14.01,2013-06-16 14:55:00,
2013-06-16 11:00:00,61.3,59.9,29.81,WSW,246,1.0,3.0,95,0.04,,---,0.61,VWS V14.01,2013-06-16 15:00:00,
2013-06-16 11:05:00,61.5,60.1,29.81,SE,127,0.0,3.0,95,0.03,,---,0.61,VWS V14.01,2013-06-16 15:05:00,
2013-06-16 11:10:00,61.6,60.2,29.81,NW,309,0.0,3.0,95,0.03,,---,0.61,VWS V14.01,2013-06-16 15:10:00,
2013-06-16 11:15:00,61.8,60.4,29.81,WNW,299,0.0,3.0,95,0.03,,---,0.61,VWS V14.01,2013-06-16 15:15:00,
2013-06-16 11:20:00,62.1,60.7,29.81,WNW,287,0.0,3.0,95,0.04,,---,0.62,VWS V14.01,2013-06-16 15:20:00,
2013-06-16 11:25:00,62.1,60.7,29.81,WSW,239,0.0,3.0,95,0.04,,---,0.62,VWS V14.01,2013-06-16 15:25:00,
2013-06-16 11:30:00,62.4,61.0,29.81,WSW,239,0.0,3.0,95,0.04,,---,0.62,VWS V14.01,2013-06-16 15:30:00,
2013-06-16 11:35:00,62.7,61.2,29.81,SW,215,0.0,4.0,95,0.02,,---,0.62,VWS V14.01,2013-06-16 15:35:00,
2013-06-16 11:40:00,62.7,61.2,29.81,West,280,0.0,4.0,95,0.03,,---,0.63,VWS V14.01,2013-06-16 15:40:00,
2013-06-16 11:45:00,62.7,61.2,29.80,South,181,0.0,4.0,95,0.03,,---,0.63,VWS V14.01,2013-06-16 15:45:00,
2013-06-16 11:50:00,62.9,61.5,29.80,South,189,1.0,7.0,95,0.03,,---,0.63,VWS V14.01,2013-06-16 15:50:00,
2013-06-16 11:55:00,62.9,61.5,29.80,ESE,120,0.0,7.0,95,0.03,,---,0.63,VWS V14.01,2013-06-16 15:55:00,
2013-06-16 12:00:00,63.4,62.0,29.81,ESE,121,2.0,7.0,95,0.03,,---,0.63,VWS V14.01,2013-06-16 16:00:00,
2013-06-16 12:05:00,63.5,62.0,29.81,SW,230,0.0,2.0,95,0.02,,---,0.63,VWS V14.01,2013-06-16 16:05:00,
2013-06-16 12:10:00,63.9,62.4,29.81,South,174,0.0,7.0,95,0.02,,---,0.63,VWS V14.01,2013-06-16 16:10:00,
2013-06-16 12:15:00,63.9,62.4,29.81,SW,227,1.0,7.0,95,0.02,,---,0.63,VWS V14.01,2013-06-16 16:15:00,
2013-06-16 12:20:00,63.9,62.4,29.81,West,260,0.0,7.0,95,0.03,,---,0.64,VWS V14.01,2013-06-16 16:20:00,
2013-06-16 12:25:00,64.3,62.8,29.81,SSE,158,0.0,7.0,95,0.03,,---,0.64,VWS V14.01,2013-06-16 16:25:00,
2013-06-16 12:30:00,64.5,63.0,29.80,SSW,210,3.0,3.0,95,0.02,,---,0.64,VWS V14.01,2013-06-16 16:30:00,
2013-06-16 12:35:00,64.7,62.6,29.80,WNW,289,1.0,3.0,93,0.02,,---,0.64,VWS V14.01,2013-06-16 16:35:00,
2013-06-16 12:40:00,65.0,62.9,29.80,West,274,1.0,6.0,93,0.02,,---,0.64,VWS V14.01,2013-06-16 16:40:00,
2013-06-16 12:46:00,64.8,62.7,29.80,SW,229,5.0,6.0,93,0.02,,---,0.64,VWS V14.01,2013-06-16 16:46:00,
2013-06-16 12:51:00,64.8,62.1,29.80,SW,227,1.0,6.0,91,0.02,,---,0.64,VWS V14.01,2013-06-16 16:51:00,
2013-06-16 12:56:00,65.0,62.3,29.80,West,260,3.0,6.0,91,0.02,,---,0.64,VWS V14.01,2013-06-16 16:56:00,
2013-06-16 13:00:00,63.4,62.0,29.81,SE,126,0.0,7.0,95,0.03,,---,0.63,VWS V14.01,2013-06-16 17:00:00,
2013-06-16 13:01:00,65.3,62.6,29.80,SW,227,0.0,1.0,91,0.01,,---,0.64,VWS V14.01,2013-06-16 17:01:00,
2013-06-16 13:06:00,65.6,62.6,29.80,WSW,237,1.0,5.0,90,0.01,,---,0.64,VWS V14.01,2013-06-16 17:06:00,
2013-06-16 13:11:00,65.8,63.1,29.80,East,86,5.0,6.0,91,0.01,,---,0.64,VWS V14.01,2013-06-16 17:11:00,
2013-06-16 13:16:00,66.3,63.3,29.80,South,171,2.0,6.0,90,0.01,,---,0.64,VWS V14.01,2013-06-16 17:16:00,
2013-06-16 13:21:00,66.4,62.7,29.80,South,184,1.0,7.0,88,0.01,,---,0.64,VWS V14.01,2013-06-16 17:21:00,
2013-06-16 13:26:00,66.6,63.3,29.80,SSE,158,1.0,7.0,89,0.01,,---,0.64,VWS V14.01,2013-06-16 17:26:00,
2013-06-16 13:30:00,64.5,63.0,29.80,SSW,210,3.0,7.0,95,0.03,,---,0.64,VWS V14.01,2013-06-16 17:30:00,
2013-06-16 13:31:00,66.8,63.5,29.80,SW,233,0.0,0.0,89,0.00,,---,0.64,VWS V14.01,2013-06-16 17:31:00,
2013-06-16 13:36:00,67.4,63.1,29.80,SW,224,2.0,8.0,86,0.00,,---,0.64,VWS V14.01,2013-06-16 17:36:00,
2013-06-16 13:41:00,67.9,64.2,29.80,SW,220,0.0,8.0,88,0.00,,---,0.64,VWS V14.01,2013-06-16 17:41:00,
2013-06-16 13:46:00,68.6,63.2,29.79,SSE,168,1.0,8.0,83,0.00,,---,0.64,VWS V14.01,2013-06-16 17:46:00,
2013-06-16 13:51:00,69.6,63.5,29.79,SE,140,0.0,8.0,81,0.00,,---,0.64,VWS V14.01,2013-06-16 17:51:00,
2013-06-16 13:56:00,70.6,65.5,29.79,SSW,196,5.0,8.0,84,0.00,,---,0.64,VWS V14.01,2013-06-16 17:56:00,
2013-06-16 14:00:00,65.3,62.6,29.80,SW,226,0.0,6.0,91,0.02,,---,0.64,VWS V14.01,2013-06-16 18:00:00,
2013-06-16 14:01:00,71.1,65.0,29.79,SSW,210,3.0,7.0,81,0.00,,---,0.64,VWS V14.01,2013-06-16 18:01:00,
2013-06-16 14:06:00,71.3,63.3,29.79,SW,234,4.0,8.0,76,0.00,,---,0.64,VWS V14.01,2013-06-16 18:06:00,
2013-06-16 14:11:00,72.0,63.7,29.79,NNE,27,5.0,8.0,75,0.00,,---,0.64,VWS V14.01,2013-06-16 18:11:00,
2013-06-16 14:16:00,72.3,63.6,29.79,South,189,2.0,10.0,74,0.00,,---,0.64,VWS V14.01,2013-06-16 18:16:00,
2013-06-16 14:21:00,72.7,62.8,29.79,WSW,251,5.0,10.0,71,0.00,,---,0.64,VWS V14.01,2013-06-16 18:21:00,
2013-06-16 14:26:00,73.3,64.9,29.79,WNW,292,2.0,10.0,75,0.00,,---,0.64,VWS V14.01,2013-06-16 18:26:00,
2013-06-16 14:30:00,66.8,63.5,29.80,SW,233,0.0,7.0,89,0.01,,---,0.64,VWS V14.01,2013-06-16 18:30:00,
2013-06-16 14:31:00,73.5,63.9,29.78,SSW,202,1.0,2.0,72,0.00,,---,0.64,VWS V14.01,2013-06-16 18:31:00,
2013-06-16 14:36:00,73.9,64.3,29.78,SSW,195,3.0,7.0,72,0.00,,---,0.64,VWS V14.01,2013-06-16 18:36:00,
2013-06-16 14:41:00,74.0,63.2,29.78,South,178,1.0,8.0,69,0.00,,---,0.64,VWS V14.01,2013-06-16 18:41:00,
2013-06-16 14:46:00,74.0,61.5,29.79,SE,130,2.0,8.0,65,0.00,,---,0.64,VWS V14.01,2013-06-16 18:46:00,
2013-06-16 14:51:00,74.2,63.0,29.79,WSW,246,10.0,12.0,68,0.00,,---,0.64,VWS V14.01,2013-06-16 18:51:00,
2013-06-16 14:56:00,74.2,59.9,29.79,South,191,3.0,12.0,61,0.00,,---,0.64,VWS V14.01,2013-06-16 18:56:00,
2013-06-16 15:00:00,70.9,64.8,29.79,WSW,247,7.0,12.0,81,0.00,,---,0.64,VWS V14.01,2013-06-16 19:00:00,
2013-06-16 15:02:00,74.4,58.7,29.78,SW,216,8.0,8.0,58,0.00,,---,0.64,VWS V14.01,2013-06-16 19:02:00,
2013-06-16 15:07:00,74.6,59.8,29.78,East,99,2.0,8.0,60,0.00,,---,0.64,VWS V14.01,2013-06-16 19:07:00,
2013-06-16 15:12:00,74.7,59.0,29.78,SE,144,6.0,8.0,58,0.00,,---,0.64,VWS V14.01,2013-06-16 19:12:00,
2013-06-16 15:17:00,74.7,58.0,29.78,SW,226,2.0,11.0,56,0.00,,---,0.64,VWS V14.01,2013-06-16 19:17:00,
2013-06-16 15:22:00,74.9,58.7,29.78,SSE,154,1.0,11.0,57,0.00,,---,0.64,VWS V14.01,2013-06-16 19:22:00,
2013-06-16 15:27:00,75.1,58.3,29.78,SW,226,6.0,11.0,56,0.00,,---,0.64,VWS V14.01,2013-06-16 19:27:00,
2013-06-16 15:30:00,73.5,63.9,29.78,WNW,289,2.0,10.0,72,0.00,,---,0.64,VWS V14.01,2013-06-16 19:30:00,
2013-06-16 15:32:00,75.3,57.5,29.78,SSW,203,5.0,7.0,54,0.00,,---,0.64,VWS V14.01,2013-06-16 19:32:00,
2013-06-16 15:37:00,75.3,60.0,29.78,WSW,253,2.0,8.0,59,0.00,,---,0.64,VWS V14.01,2013-06-16 19:37:00,
2013-06-16 15:42:00,75.4,57.6,29.78,ENE,76,5.0,14.0,54,0.00,,---,0.64,VWS V14.01,2013-06-16 19:42:00,
2013-06-16 15:47:00,75.4,57.6,29.78,WSW,240,1.0,14.0,54,0.00,,---,0.64,VWS V14.01,2013-06-16 19:47:00,
2013-06-16 15:52:00,75.6,60.3,29.78,WSW,251,2.0,14.0,59,0.00,,---,0.64,VWS V14.01,2013-06-16 19:52:00,
2013-06-16 15:57:00,75.8,60.0,29.78,SSW,210,4.0,14.0,58,0.00,,---,0.64,VWS V14.01,2013-06-16 19:57:00,
2013-06-16 16:00:00,74.4,60.1,29.78,South,171,4.0,12.0,61,0.00,,---,0.64,VWS V14.01,2013-06-16 20:00:00,
2013-06-16 16:02:00,76.0,57.7,29.78,NW,309,2.0,11.0,53,0.00,,---,0.64,VWS V14.01,2013-06-16 20:02:00,
2013-06-16 16:07:00,76.0,58.2,29.78,WNW,298,5.0,11.0,54,0.00,,---,0.64,VWS V14.01,2013-06-16 20:07:00,
2013-06-16 16:12:00,76.1,58.3,29.78,South,191,7.0,11.0,54,0.00,,---,0.64,VWS V14.01,2013-06-16 20:12:00,
2013-06-16 16:17:00,76.3,57.4,29.78,SSW,192,6.0,11.0,52,0.00,,---,0.64,VWS V14.01,2013-06-16 20:17:00,
2013-06-16 16:22:00,76.3,57.4,29.78,WSW,257,4.0,11.0,52,0.00,,---,0.64,VWS V14.01,2013-06-16 20:22:00,
2013-06-16 16:27:00,76.5,57.6,29.78,SSW,203,6.0,11.0,52,0.00,,---,0.64,VWS V14.01,2013-06-16 20:27:00,
2013-06-16 16:30:00,75.3,57.5,29.78,South,186,5.0,11.0,54,0.00,,---,0.64,VWS V14.01,2013-06-16 20:30:00,
2013-06-16 16:32:00,76.7,57.2,29.78,SSE,150,0.0,7.0,51,0.00,,---,0.64,VWS V14.01,2013-06-16 20:32:00,
2013-06-16 16:37:00,76.8,58.9,29.78,SE,141,0.0,7.0,54,0.00,,---,0.64,VWS V14.01,2013-06-16 20:37:00,
2013-06-16 16:42:00,77.0,58.6,29.78,SSW,196,0.0,9.0,53,0.00,,---,0.64,VWS V14.01,2013-06-16 20:42:00,
2013-06-16 16:47:00,77.0,57.5,29.78,SSE,151,3.0,10.0,51,0.00,,---,0.64,VWS V14.01,2013-06-16 20:47:00,
2013-06-16 16:52:00,77.0,58.0,29.78,SW,230,6.0,10.0,52,0.00,,---,0.64,VWS V14.01,2013-06-16 20:52:00,
2013-06-16 16:57:00,77.4,59.0,29.78,NNE,18,3.0,10.0,53,0.00,,---,0.64,VWS V14.01,2013-06-16 20:57:00,
2013-06-16 17:00:00,75.8,57.5,29.78,SSW,195,1.0,14.0,53,0.00,,---,0.64,VWS V14.01,2013-06-16 21:00:00,
2013-06-16 17:02:00,77.6,60.2,29.78,NW,322,1.0,7.0,55,0.00,,---,0.64,VWS V14.01,2013-06-16 21:02:00,
2013-06-16 17:07:00,77.7,58.2,29.78,WSW,247,2.0,9.0,51,0.00,,---,0.64,VWS V14.01,2013-06-16 21:07:00,
2013-06-16 17:12:00,77.9,61.0,29.78,SW,229,2.0,9.0,56,0.00,,---,0.64,VWS V14.01,2013-06-16 21:12:00,
2013-06-16 17:17:00,78.1,60.1,29.79,WNW,292,2.0,9.0,54,0.00,,---,0.64,VWS V14.01,2013-06-16 21:17:00,
2013-06-16 17:23:00,78.1,60.1,29.79,SW,226,6.0,12.0,54,0.00,,---,0.64,VWS V14.01,2013-06-16 21:23:00,
2013-06-16 17:28:00,78.5,59.4,29.79,SSW,209,8.0,12.0,52,0.00,,---,0.64,VWS V14.01,2013-06-16 21:28:00,
2013-06-16 17:30:00,76.7,58.8,29.78,SW,217,1.0,11.0,54,0.00,,---,0.64,VWS V14.01,2013-06-16 21:30:00,
2013-06-16 17:33:00,78.5,60.0,29.79,SSE,161,7.0,7.0,53,0.00,,---,0.64,VWS V14.01,2013-06-16 21:33:00,
2013-06-16 17:38:00,78.1,59.1,29.79,West,260,2.0,7.0,52,0.00,,---,0.64,VWS V14.01,2013-06-16 21:38:00,
2013-06-16 17:43:00,77.6,58.6,29.79,ESE,121,2.0,7.0,52,0.00,,---,0.64,VWS V14.01,2013-06-16 21:43:00,
2013-06-16 17:48:00,76.7,58.8,29.79,SE,126,2.0,7.0,54,0.00,,---,0.64,VWS V14.01,2013-06-16 21:48:00,
2013-06-16 17:53:00,76.0,58.7,29.79,WSW,244,7.0,12.0,55,0.00,,---,0.64,VWS V14.01,2013-06-16 21:53:00,
2013-06-16 17:58:00,75.6,58.3,29.79,SSE,148,8.0,12.0,55,0.00,,---,0.64,VWS V14.01,2013-06-16 21:58:00,
2013-06-16 18:00:00,77.6,59.7,29.78,SW,232,1.0,10.0,54,0.00,,---,0.64,VWS V14.01,2013-06-16 22:00:00,
2013-06-16 18:03:00,75.1,58.3,29.79,SW,229,2.0,6.0,56,0.00,,---,0.64,VWS V14.01,2013-06-16 22:03:00,
2013-06-16 18:08:00,74.9,58.2,29.79,SSW,206,2.0,6.0,56,0.00,,---,0.64,VWS V14.01,2013-06-16 22:08:00,
2013-06-16 18:13:00,74.9,58.7,29.79,WSW,241,2.0,7.0,57,0.00,,---,0.64,VWS V14.01,2013-06-16 22:13:00,
2013-06-16 18:18:00,74.9,58.7,29.79,SSW,193,3.0,8.0,57,0.00,,---,0.64,VWS V14.01,2013-06-16 22:18:00,
2013-06-16 18:23:00,74.9,58.2,29.79,SSW,202,3.0,10.0,56,0.00,,---,0.64,VWS V14.01,2013-06-16 22:23:00,
2013-06-16 18:28:00,74.9,57.2,29.79,South,175,3.0,12.0,54,0.00,,---,0.64,VWS V14.01,2013-06-16 22:28:00,
2013-06-16 18:30:00,78.5,59.4,29.79,South,178,2.0,12.0,52,0.00,,---,0.64,VWS V14.01,2013-06-16 22:30:00,
2013-06-16 18:33:00,74.7,57.0,29.80,NE,52,2.0,3.0,54,0.00,,---,0.64,VWS V14.01,2013-06-16 22:33:00,
2013-06-16 18:38:00,74.4,58.7,29.80,NW,325,7.0,12.0,58,0.00,,---,0.64,VWS V14.01,2013-06-16 22:38:00,
2013-06-16 18:43:00,73.0,59.2,29.80,North,352,3.0,12.0,62,0.00,,---,0.64,VWS V14.01,2013-06-16 22:43:00,
2013-06-16 18:48:00,72.8,57.7,29.80,SW,217,2.0,12.0,59,0.00,,---,0.64,VWS V14.01,2013-06-16 22:48:00,
2013-06-16 18:53:00,72.8,58.6,29.80,WSW,247,1.0,12.0,61,0.00,,---,0.64,VWS V14.01,2013-06-16 22:53:00,
2013-06-16 18:58:00,73.0,58.3,29.80,NW,316,1.0,12.0,60,0.00,,---,0.64,VWS V14.01,2013-06-16 22:58:00,
2013-06-16 19:00:00,75.3,59.0,29.79,SW,220,4.0,12.0,57,0.00,,---,0.64,VWS V14.01,2013-06-16 23:00:00,
2013-06-16 19:03:00,73.2,61.2,29.79,WNW,284,0.0,1.0,66,0.00,,---,0.64,VWS V14.01,2013-06-16 23:03:00,
2013-06-16 19:08:00,73.0,58.8,29.79,North,356,6.0,7.0,61,0.00,,---,0.64,VWS V14.01,2013-06-16 23:08:00,
2013-06-16 19:13:00,72.0,58.3,29.79,North,354,5.0,8.0,62,0.00,,---,0.64,VWS V14.01,2013-06-16 23:13:00,
2013-06-16 19:18:00,70.9,57.2,29.81,NNW,347,5.0,11.0,62,0.00,,---,0.64,VWS V14.01,2013-06-16 23:18:00,
2013-06-16 19:23:00,70.1,56.5,29.81,WNW,296,4.0,11.0,62,0.00,,---,0.64,VWS V14.01,2013-06-16 23:23:00,
2013-06-16 19:28:00,69.9,56.8,29.81,North,352,5.0,11.0,63,0.00,,---,0.64,VWS V14.01,2013-06-16 23:28:00,
2013-06-16 19:30:00,74.7,57.0,29.80,NNW,328,2.0,12.0,54,0.00,,---,0.64,VWS V14.01,2013-06-16 23:30:00,
2013-06-16 19:33:00,69.4,56.3,29.81,NW,316,0.0,5.0,63,0.00,,---,0.64,VWS V14.01,2013-06-16 23:33:00,
2013-06-16 19:38:00,69.8,57.1,29.81,SSW,210,0.0,5.0,64,0.00,,---,0.64,VWS V14.01,2013-06-16 23:38:00,
2013-06-16 19:43:00,69.9,56.3,29.81,NNW,339,1.0,5.0,62,0.00,,---,0.64,VWS V14.01,2013-06-16 23:43:00,
2013-06-16 19:48:00,70.1,56.5,29.81,NNW,339,3.0,5.0,62,0.00,,---,0.64,VWS V14.01,2013-06-16 23:48:00,
2013-06-16 19:53:00,69.9,56.3,29.81,NW,309,0.0,5.0,62,0.00,,---,0.64,VWS V14.01,2013-06-16 23:53:00,
2013-06-16 19:58:00,69.8,57.5,29.81,West,277,1.0,5.0,65,0.00,,---,0.64,VWS V14.01,2013-06-16 23:58:00,
2013-06-16 20:00:00,73.0,57.8,29.79,WNW,284,0.0,12.0,59,0.00,,---,0.64,VWS V14.01,2013-06-17 00:00:00,
2013-06-16 20:03:00,69.4,58.0,29.81,West,261,0.0,1.0,67,0.00,,---,0.64,VWS V14.01,2013-06-17 00:03:00,
2013-06-16 20:08:00,69.1,57.3,29.81,North,357,5.0,6.0,66,0.00,,---,0.64,VWS V14.01,2013-06-17 00:08:00,
2013-06-16 20:13:00,68.8,57.4,29.81,NNW,346,0.0,6.0,67,0.00,,---,0.64,VWS V14.01,2013-06-17 00:13:00,
2013-06-16 20:18:00,68.4,57.4,29.80,North,349,2.0,6.0,68,0.00,,---,0.64,VWS V14.01,2013-06-17 00:18:00,
2013-06-16 20:23:00,68.1,58.0,29.80,North,350,5.0,7.0,70,0.00,,---,0.64,VWS V14.01,2013-06-17 00:23:00,
2013-06-16 20:28:00,67.8,57.7,29.80,NNW,347,2.0,7.0,70,0.00,,---,0.64,VWS V14.01,2013-06-17 00:28:00,
2013-06-16 20:30:00,69.8,56.7,29.81,NW,326,3.0,11.0,63,0.00,,---,0.64,VWS V14.01,2013-06-17 00:30:00,
2013-06-16 20:34:00,67.4,57.7,29.80,NNW,347,1.0,1.0,71,0.00,,---,0.64,VWS V14.01,2013-06-17 00:34:00,
2013-06-16 20:39:00,66.9,57.6,29.80,NNW,347,3.0,3.0,72,0.00,,---,0.64,VWS V14.01,2013-06-17 00:39:00,
2013-06-16 20:44:00,66.3,58.2,29.80,NNW,347,2.0,3.0,75,0.00,,---,0.64,VWS V14.01,2013-06-17 00:44:00,
2013-06-16 20:49:00,65.6,58.2,29.81,NW,316,0.0,4.0,77,0.00,,---,0.64,VWS V14.01,2013-06-17 00:49:00,
2013-06-16 20:54:00,65.3,58.3,29.81,NW,316,0.0,4.0,78,0.00,,---,0.64,VWS V14.01,2013-06-17 00:54:00,
2013-06-16 20:59:00,65.2,58.5,29.81,NW,316,0.0,4.0,79,0.00,,---,0.64,VWS V14.01,2013-06-17 00:59:00,
2013-06-16 21:00:00,69.8,57.1,29.81,West,261,0.0,5.0,64,0.00,,---,0.64,VWS V14.01,2013-06-17 01:00:00,
2013-06-16 21:04:00,65.0,58.7,29.81,NW,316,2.0,2.0,80,0.00,,---,0.64,VWS V14.01,2013-06-17 01:04:00,
2013-06-16 21:09:00,64.7,58.7,29.81,NW,308,0.0,2.0,81,0.00,,---,0.64,VWS V14.01,2013-06-17 01:09:00,
2013-06-16 21:14:00,64.2,58.3,29.81,NW,308,0.0,2.0,81,0.00,,---,0.64,VWS V14.01,2013-06-17 01:14:00,
2013-06-16 21:19:00,63.9,58.3,29.80,NW,308,0.0,2.0,82,0.00,,---,0.64,VWS V14.01,2013-06-17 01:19:00,
2013-06-16 21:24:00,63.7,58.5,29.80,NW,308,0.0,2.0,83,0.00,,---,0.64,VWS V14.01,2013-06-17 01:24:00,
2013-06-16 21:29:00,63.4,58.2,29.80,NW,308,0.0,2.0,83,0.00,,---,0.64,VWS V14.01,2013-06-17 01:29:00,
2013-06-16 21:30:00,67.6,57.9,29.80,NNW,347,0.0,7.0,71,0.00,,---,0.64,VWS V14.01,2013-06-17 01:30:00,
2013-06-16 21:34:00,63.2,58.6,29.80,NW,308,0.0,1.0,85,0.00,,---,0.64,VWS V14.01,2013-06-17 01:34:00,
2013-06-16 21:39:00,62.9,57.7,29.80,NW,308,0.0,1.0,83,0.00,,---,0.64,VWS V14.01,2013-06-17 01:39:00,
2013-06-16 21:44:00,62.6,57.7,29.80,NW,308,0.0,1.0,84,0.00,,---,0.64,VWS V14.01,2013-06-17 01:44:00,
2013-06-16 21:49:00,62.4,57.5,29.81,NW,308,0.0,1.0,84,0.00,,---,0.64,VWS V14.01,2013-06-17 01:49:00,
2013-06-16 21:54:00,62.4,57.5,29.81,NW,308,0.0,1.0,84,0.00,,---,0.64,VWS V14.01,2013-06-17 01:54:00,
2013-06-16 21:59:00,62.4,57.5,29.81,NW,308,0.0,2.0,84,0.00,,---,0.64,VWS V14.01,2013-06-17 01:59:00,
2013-06-16 22:00:00,65.2,58.9,29.81,NW,316,0.0,4.0,80,0.00,,---,0.64,VWS V14.01,2013-06-17 02:00:00,
2013-06-16 22:04:00,62.1,57.2,29.82,WNW,284,1.0,3.0,84,0.00,,---,0.64,VWS V14.01,2013-06-17 02:04:00,
2013-06-16 22:09:00,62.1,55.9,29.82,West,274,0.0,3.0,80,0.00,,---,0.64,VWS V14.01,2013-06-17 02:09:00,
2013-06-16 22:14:00,62.3,56.1,29.82,West,274,0.0,3.0,80,0.00,,---,0.64,VWS V14.01,2013-06-17 02:14:00,
2013-06-16 22:19:00,62.3,56.4,29.83,NW,318,2.0,5.0,81,0.00,,---,0.64,VWS V14.01,2013-06-17 02:19:00,
2013-06-16 22:24:00,62.3,56.7,29.83,NNW,343,6.0,7.0,82,0.00,,---,0.64,VWS V14.01,2013-06-17 02:24:00,
2013-06-16 22:29:00,62.4,57.8,29.83,NNW,333,11.0,12.0,85,0.00,,---,0.64,VWS V14.01,2013-06-17 02:29:00,
2013-06-16 22:30:00,63.4,58.2,29.80,NW,308,0.0,2.0,83,0.00,,---,0.64,VWS V14.01,2013-06-17 02:30:00,
2013-06-16 22:34:00,62.1,56.5,29.86,WNW,301,9.0,25.0,82,0.00,,---,0.64,VWS V14.01,2013-06-17 02:34:00,
2013-06-16 22:39:00,62.1,55.5,29.86,North,0,13.0,25.0,79,0.00,,---,0.64,VWS V14.01,2013-06-17 02:39:00,
2013-06-16 22:44:00,61.6,54.3,29.86,NW,320,9.0,25.0,77,0.00,,---,0.64,VWS V14.01,2013-06-17 02:44:00,
2013-06-16 22:49:00,61.2,54.3,29.86,NNW,332,5.0,25.0,78,0.00,,---,0.64,VWS V14.01,2013-06-17 02:49:00,
2013-06-16 22:54:00,60.9,54.7,29.86,North,3,7.0,25.0,80,0.00,,---,0.64,VWS V14.01,2013-06-17 02:54:00,
2013-06-16 22:59:00,60.2,54.0,29.85,NW,304,8.0,25.0,80,0.00,,---,0.64,VWS V14.01,2013-06-17 02:59:00,
2013-06-16 23:00:00,62.4,57.5,29.82,NW,308,0.0,2.0,84,0.00,,---,0.64,VWS V14.01,2013-06-17 03:00:00,
2013-06-16 23:04:00,59.6,53.4,29.85,North,0,6.0,8.0,80,0.00,,---,0.64,VWS V14.01,2013-06-17 03:04:00,
2013-06-16 23:09:00,59.0,53.2,29.85,North,10,7.0,10.0,81,0.00,,---,0.64,VWS V14.01,2013-06-17 03:09:00,
2013-06-16 23:15:00,58.4,53.3,29.83,North,6,1.0,10.0,83,0.00,,---,0.64,VWS V14.01,2013-06-17 03:15:00,
2013-06-16 23:20:00,58.3,53.5,29.83,North,0,0.0,10.0,84,0.00,,---,0.64,VWS V14.01,2013-06-17 03:20:00,
2013-06-16 23:25:00,58.0,53.2,29.83,North,353,0.0,10.0,84,0.00,,---,0.64,VWS V14.01,2013-06-17 03:25:00,
2013-06-16 23:30:00,57.8,53.3,29.82,North,353,0.0,10.0,85,0.00,,---,0.64,VWS V14.01,2013-06-17 03:30:00,
2013-06-16 23:35:00,57.5,53.7,29.82,North,353,1.0,1.0,87,0.00,,---,0.64,VWS V14.01,2013-06-17 03:35:00,
2013-06-16 23:40:00,57.3,53.8,29.82,North,353,0.0,1.0,88,0.00,,---,0.64,VWS V14.01,2013-06-17 03:40:00,
2013-06-16 23:45:00,57.2,53.7,29.84,North,353,0.0,1.0,88,0.00,,---,0.64,VWS V14.01,2013-06-17 03:45:00,
2013-06-16 23:50:00,57.0,53.5,29.84,North,353,0.0,1.0,88,0.00,,---,0.64,VWS V14.01,2013-06-17 03:50:00,
2013-06-16 23:55:00,56.9,53.7,29.84,North,353,0.0,1.0,89,0.00,,---,0.64,VWS V14.01,2013-06-17 03:55:00,